E1763 Weather Reports


time (UTC)temp
F
wind
direction
speed
knots
gust
knots
rain 1hr
in
rain 24hr
in
rain mn
in
humidity
%
barometer
mb
20260506014519 55 263 0.0 0.0 0.00 0.00 0.00 88 1010.7
20260506013021 55 24 0.0 0.0 0.00 0.00 0.00 89 1010.7
20260506011516 55 349 0.0 0.0 0.00 0.00 0.00 88 1010.7
20260506010016 56 302 0.0 6.1 0.00 0.00 0.00 87 1010.5
20260506004515 56 250 0.0 0.0 0.00 0.00 0.00 87 1010.6
20260506003016 56 278 0.0 0.9 0.00 0.00 0.00 88 1010.6
20260506001514 56 222 0.0 1.7 0.00 0.00 0.00 88 1010.5
20260506000013 56 34 0.0 5.2 0.00 0.00 0.00 87 1010.5
20260505234514 57 49 0.0 4.3 0.00 0.00 0.00 87 1010.4
20260505233012 57 225 0.0 0.0 0.00 0.00 0.00 86 1010.5
20260505231525 58 190 0.0 0.0 0.00 0.00 0.00 85 1010.6
20260505230021 59 28 0.0 0.0 0.00 0.00 0.00 83 1010.6
20260505224513 59 28 0.0 0.0 0.00 0.00 0.00 84 1010.5
20260505223009 59 169 0.0 0.0 0.00 0.00 0.00 82 1010.6
20260505221508 61 257 0.0 0.0 0.00 0.00 0.00 82 1010.7
20260505220006 61 256 0.0 0.0 0.00 0.00 0.00 81 1010.6
20260505214507 61 214 0.0 0.0 0.00 0.00 0.00 79 1010.6
20260505213014 61 238 0.0 0.0 0.00 0.00 0.00 80 1010.6
20260505211509 62 167 0.0 0.0 0.00 0.00 0.00 80 1010.6
20260505210004 62 188 0.0 0.0 0.00 0.00 0.00 81 1010.6
20260505204503 61 178 0.0 0.0 0.00 0.00 0.00 80 1010.5
20260505203001 62 180 0.0 0.0 0.00 0.00 0.00 81 1010.6
20260505201500 62 217 0.0 0.0 0.00 0.00 0.00 79 1010.7
20260505200058 61 175 0.0 0.0 0.00 0.00 0.00 83 1010.6
20260505194555 60 205 0.0 0.0 0.00 0.01 0.00 83 1010.6
20260505193053 60 187 0.0 0.0 0.00 0.01 0.00 84 1010.7
20260505191602 60 200 0.0 2.6 0.00 0.01 0.00 85 1010.7
20260505190049 59 222 0.0 0.0 0.00 0.01 0.00 84 1010.6
20260505184546 59 154 0.0 0.0 0.00 0.02 0.00 84 1010.6
20260505183044 58 5 0.0 0.0 0.00 0.02 0.00 84 1010.6
20260505181545 58 26 0.0 2.6 0.00 0.02 0.00 87 1010.5
20260505180039 57 230 0.0 0.0 0.00 0.02 0.00 87 1010.4
20260505174541 56 344 0.0 0.0 0.00 0.02 0.00 87 1010.4
20260505173034 56 11 0.0 0.0 0.00 0.02 0.00 90 1010.3
20260505171533 56 347 0.0 0.0 0.00 0.02 0.00 90 1010.3
20260505170030 56 281 0.0 0.0 0.00 0.02 0.00 91 1010.3
20260505164529 55 205 0.0 0.0 0.00 0.03 0.00 92 1010.3
20260505163033 54 19 0.0 0.0 0.00 0.03 0.00 93 1010.1
20260505161526 54 355 0.0 0.9 0.00 0.03 0.00 94 1010.1
20260505153022 53 321 0.0 1.7 0.00 0.03 0.00 96 1010.0
20260505151521 52 281 0.0 0.0 0.00 0.03 0.00 96 1010.0
20260505124514 51 25 0.0 0.0 0.00 0.03 0.00 96 1009.2
20260505123013 51 25 0.0 0.0 0.00 0.03 0.00 96 1009.3
20260505121514 51 25 0.0 0.0 0.00 0.03 0.00 96 1009.1
20260505120011 52 25 0.0 0.0 0.00 0.03 0.00 96 1009.2
20260505114514 52 25 0.0 0.0 0.00 0.03 0.00 96 1009.2
20260505113016 52 25 0.0 0.0 0.00 0.03 0.00 96 1009.2
20260505111510 52 25 0.0 0.0 0.00 0.03 0.00 96 1009.2
20260505101508 52 25 0.0 0.0 0.00 0.03 0.00 96 1009.2
20260505100007 52 345 0.0 0.0 0.00 0.03 0.00 95 1009.2
20260505094505 52 345 0.0 0.0 0.00 0.03 0.00 95 1009.1
20260505093004 52 345 0.0 0.0 0.00 0.03 0.00 95 1009.3
20260505091500 52 345 0.0 0.0 0.00 0.03 0.00 95 1009.8
20260505090107 52 9 0.0 0.0 0.00 0.03 0.00 95 1010.0
20260505084600 52 340 0.0 0.0 0.00 0.03 0.00 95 1010.0
20260505083103 52 339 0.0 0.0 0.00 0.03 0.00 95 1009.8
20260505081602 52 339 0.0 0.0 0.00 0.03 0.00 95 1010.0
20260505080057 52 339 0.0 0.0 0.00 0.03 0.00 95 1010.3
20260505074555 52 339 0.0 0.0 0.00 0.03 0.00 95 1010.0
20260505073058 52 251 0.0 0.0 0.00 0.03 0.00 95 1010.2
20260505071555 52 251 0.0 0.0 0.00 0.03 0.00 95 1010.2
20260505070052 52 251 0.0 0.0 0.00 0.03 0.00 95 1010.4
20260505064550 52 251 0.0 0.0 0.00 0.03 0.03 95 1010.3
20260505063050 52 251 0.0 0.0 0.00 0.03 0.03 95 1010.3
20260505061550 52 251 0.0 0.0 0.00 0.03 0.03 95 1010.5
20260505060049 52 251 0.0 0.0 0.00 0.03 0.03 94 1010.7
20260505054549 52 251 0.0 0.0 0.00 0.03 0.03 94 1010.7
20260505053050 52 251 0.0 0.0 0.00 0.03 0.03 94 1010.7
20260505051548 52 251 0.0 0.0 0.00 0.03 0.03 94 1010.5
20260505041545 52 257 0.0 0.0 0.00 0.03 0.03 93 1010.4
20260505040045 52 283 0.0 0.0 0.00 0.03 0.03 93 1010.3
20260505034544 53 239 0.0 0.0 0.00 0.03 0.03 92 1010.1
20260505033105 53 260 0.0 0.0 0.00 0.03 0.03 92 1010.0
20260505031542 53 252 0.0 0.0 0.00 0.03 0.03 91 1009.9
20260505030043 53 204 0.0 0.0 0.00 0.03 0.03 91 1009.9
20260505024542 54 222 0.0 0.0 0.00 0.03 0.03 91 1010.0
20260505023049 54 239 0.0 0.0 0.00 0.03 0.03 90 1009.9
20260505021540 54 270 0.0 0.0 0.00 0.03 0.03 90 1010.0
20260505020046 55 306 0.0 0.0 0.00 0.03 0.03 89 1010.0